Regional Weather Roundup
Issued by NWS

Home | Current Version | Previous Version | Text Only | Print | Product List | Glossary Off
Versions: 1 2 3 4 5 6 7 8 9 10 11 12 13 14 15 16 17 18 19 20 21 22 23 24 25 26 27 28 29 30 31 32 33 34 35 36 37 38 39 40 41 42 43 44 45 46 47 48 49 50

000
ASUS43 KDMX 190007
RWRIA

WEATHER ROUNDUP FOR IOWA
NATIONAL WEATHER SERVICE DES MOINES IA
700 PM CDT THU SEP 18 2014

NOTE: "FAIR" INDICATES FEW OR NO CLOUDS BELOW 12,000 FEET WITH NO
SIGNIFICANT WEATHER AND/OR OBSTRUCTIONS TO VISIBILITY.

* - THESE STATIONS ARE NOT NWS STATIONS...THUS NOT UNDER NWS
QUALITY CONTROL.  THEY ALSO DO NOT REPORT WEATHER SUCH
AS PRECIPITATION OR FOG.

IAZ001>003-012>014-020>022-031>034-043>046-190100-
   NORTHWEST IOWA

CITY           SKY/WX    TMP DP  RH WIND       PRES   REMARKS
CARROLL *      CLEAR     66  52  59 SE6       30.00S
CHEROKEE *     CLEAR     68  56  64 SE6       29.97R
DENISON *      CLEAR     68  55  64 SE8       29.96S
LE MARS *      CLEAR     70  57  64 SE6       29.95S
ORANGE CITY *  CLEAR     72  55  56 SE6       29.96S
SHELDON *      CLEAR     68  55  64 SE7       29.95S
SIOUX CITY     CLEAR     73  57  57 SE8       29.94S
6HR MIN TEMP:  72; 6HR MAX TEMP:  78;

SPENCER        CLEAR     67  52  58 S8        29.98R
6HR MIN TEMP:  67; 6HR MAX TEMP:  74;

STORM LAKE *   CLEAR     64  59  82 SE8       29.99R
$$

IAZ055>058-069>071-079>083-090>094-190100-
   SOUTHWEST IOWA

CITY           SKY/WX    TMP DP  RH WIND       PRES   REMARKS
ATLANTIC *     CLEAR     68  52  56 SE6       29.99S
AUDUBON *      CLEAR     66  52  59 SE5       30.01S
CLARINDA *     CLEAR     68  57  68 SE6       30.01S
COUNCIL BLFS * CLEAR     68  57  68 SE7       29.96S
CRESTON *      PTCLDY    64  57  77 SE6G13    30.03R
HARLAN  *      CLEAR     68  55  64 SE7       30.02S
LAMONI         PTCLDY    65  58  78 E3        30.02S
6HR MIN TEMP:  65; 6HR MAX TEMP:  69;

SHENANDOAH *   CLEAR     68  59  73 SE6       29.99S
$$

IAZ047>049-059>061-072>074-084-190100-
   CENTRAL IOWA

CITY           SKY/WX    TMP DP  RH WIND       PRES   REMARKS
AMES           CLEAR     65  52  62 S6        30.02R
6HR MIN TEMP:  65; 6HR MAX TEMP:  73;

ANKENY *       CLEAR     66  52  59 SE5       30.02R
CHARITON *     CLEAR     64  57  77 SE8       30.03S
DES MOINES     PTCLDY    69  52  54 S7        30.02R
6HR MIN TEMP:  69; 6HR MAX TEMP:  74;

GRINNELL*      CLEAR     66  54  63 SE6       30.04F
KNOXVILLE *    CLEAR     68  54  60 SE7       30.02S
MARSHALLTOWN   CLEAR     67  54  63 SE7       30.02S
6HR MIN TEMP:  66; 6HR MAX TEMP:  73;

PELLA *        CLEAR     67  54  63 SE5       30.04F
PERRY *          N/A     66  54  64 SE7       30.01S
$$

IAZ004>006-015-016-023>025-035-036-190100-
   NORTH CENTRAL IOWA

CITY           SKY/WX    TMP DP  RH WIND       PRES   REMARKS
ALGONA *       CLEAR     68  52  56 S8        30.01R
CLARION *        N/A     68  52  56 SE7       30.01S
ESTHERVILLE    CLEAR     67  48  50 SE10      29.99R
6HR MIN TEMP:  67; 6HR MAX TEMP:  73;

FORT DODGE *   CLEAR     66  50  55 S3        30.01S
MASON CITY     CLEAR     66  53  63 SE7       30.04R
6HR MIN TEMP:  66; 6HR MAX TEMP:  73;

FOREST CITY *  CLEAR     64  54  68 SE7       30.01S
IOWA FALLS *     N/A     66  54  63 SE6       30.04R
$$

IAZ007>011-017>019-026>030-037>042-050>054-066-190100-
   NORTHEAST IOWA

CITY           SKY/WX    TMP DP  RH WIND       PRES   REMARKS
CEDAR RAPIDS   CLEAR     66  56  70 E6        30.05S
6HR MIN TEMP:  66; 6HR MAX TEMP:  72;

CHARLES CITY * CLEAR     66  54  63 SE6       30.04S
CLINTON *      CLEAR     63  54  72 E7        30.10S
DECORAH *      CLEAR     64  55  72 VRB6      30.05S
DUBUQUE        CLEAR     63  54  72 E7        30.09S
6HR MIN TEMP:  63; 6HR MAX TEMP:  70;

MONTICELLO *   CLEAR     64  55  72 E6        30.06S
OELWEIN *      CLEAR     66  55  68 S6        30.06S
WATERLOO       CLEAR     68  52  56 SE9       30.02F
6HR MIN TEMP:  68; 6HR MAX TEMP:  73;

$$

IAZ064-065-067-068-078-190100-
   EAST CENTRAL IOWA

CITY           SKY/WX    TMP DP  RH WIND       PRES   REMARKS
DAVENPORT      CLEAR     65  50  58 E6        30.08R
6HR MIN TEMP:  65; 6HR MAX TEMP:  74;

IOWA CITY      CLEAR     69  54  58 E7        30.06S
6HR MIN TEMP:  69; 6HR MAX TEMP:  73;

MT. PLEASANT * CLEAR     68  51  53 E5        30.04S
MUSCATINE *    CLEAR     70  52  52 E6        30.05S
QUAD CITIES    CLEAR     64  53  67 E7        30.06R
6HR MIN TEMP:  64; 6HR MAX TEMP:  75;

$$

IAZ062-063-075>077-085>089-095>099-190100-
   SOUTHEAST IOWA

CITY           SKY/WX    TMP DP  RH WIND       PRES   REMARKS
BURLINGTON     CLEAR     70  53  54 E5        30.05R
6HR MIN TEMP:  70; 6HR MAX TEMP:  75; 6HR PCP: TRACE;

FAIRFIELD *    CLEAR     66  55  68 SE3       30.04S
FORT MADISON * PTCLDY    66  55  68 CALM      30.05S
KEOKUK *       CLEAR     68  54  60 SE5       30.03S
OSKALOOSA *      N/A     66  55  68 CALM      30.04S
CENTERVILLE *  CLEAR     64  59  82 SE3       30.05S
OTTUMWA        CLEAR     67  54  63 S3        30.03S
6HR MIN TEMP:  67; 6HR MAX TEMP:  72;

WASHINGTON *   CLEAR     64  55  72 SE7       30.05R
$$

ABBREVIATIONS USED IN REMARKS
   TC - TEMPERATURES IN CELSIUS
  WCI - WIND CHILL INDEX
   HX - HEAT INDEX
  VSB - VISIBILITY
$$



USA.gov is the U.S. government's official web portal to all federal, state and local government web resources and services.